Waukesha, WI

9:30 PM CST on February 19, 2017 (GMT -0600)
Waukesha County

Weather History for KUES - March, 2014

Change the Weather History Date:

Sunday, March 16, 2014

  Actual Average Record
Temperature  
Mean Temperature 16 °F -  
Max Temperature 21 °F 41 °F 71 °F (2012)
Min Temperature 12 °F 24 °F 6 °F (1999)
Degree Days  
Heating Degree Days 48    
Moisture  
Dew Point 9 °F    
Average Humidity 74    
Maximum Humidity 85    
Minimum Humidity 58    
Precipitation  
Precipitation 0.00 in - - ()
Sea Level Pressure  
Sea Level Pressure 30.36 in    
Wind  
Wind Speed 17 mph (NE)    
Max Wind Speed 104 mph    
Max Gust Speed 29 mph    
Visibility 9 miles    
Events Snow    
Averages and records for this station are not official NWS values.
T = Trace of Precipitation, MM = Missing Value Source: NWS Daily Summary

Daily Weather History Graph

Daily Weather History Graph

Search for Another Location

Airport or City:

Trip Planner

Search our weather history database for the weather conditions in past years. The results will help you decide how hot, cold, wet, or windy it might be!

Date:

Astronomy

Mar. 16, 2014 Rise Set
Actual Time 7:03 AM CDT 7:00 PM CDT
Civil Twilight 6:34 AM CDT 7:28 PM CDT
Nautical Twilight 6:01 AM CDT 8:01 PM CDT
Astronomical Twilight 5:28 AM CDT 8:35 PM CDT
Moon 7:19 PM CDT (3/16) 6:46 AM CDT (3/16)
Length of Visible Light 12h 53m
Length of Day
11h 57m
Full, 100% of the Moon is Illuminated
Mar 16
Full
Mar 16
Full
Mar 23
Last Quarter
Mar 30
New
Apr 7
First Quarter

Hourly Weather History & Observations

Time (CDT) Temp. Windchill Dew Point Humidity Pressure Visibility Wind Dir Wind Speed Gust Speed Precip Events Conditions
12:15 AM 21.2 °F 6.4 °F 14.0 °F 74% 30.35 in 10.0 mi NE 18.4 mph 27.6 mph N/A   Overcast
12:35 AM 19.4 °F 3.6 °F 14.0 °F 80% 30.34 in 10.0 mi NE 19.6 mph 27.6 mph N/A   Overcast
12:55 AM 19.4 °F 4.1 °F 12.2 °F 74% 30.34 in 10.0 mi NE 18.4 mph 26.5 mph N/A   Overcast
1:15 AM 19.4 °F 5.0 °F 12.2 °F 74% 30.35 in 10.0 mi NE 16.1 mph 28.8 mph N/A   Overcast
1:35 AM 19.4 °F 4.5 °F 12.2 °F 74% 30.35 in 10.0 mi NE 17.3 mph 24.2 mph N/A   Overcast
1:55 AM 19.4 °F 3.2 °F 12.2 °F 74% 30.36 in 10.0 mi NE 20.7 mph 27.6 mph N/A   Overcast
2:15 AM 17.6 °F 2.2 °F 10.4 °F 73% 30.38 in 10.0 mi NE 17.3 mph 27.6 mph N/A   Overcast
2:35 AM 17.6 °F 5.0 °F 10.4 °F 73% 30.38 in 10.0 mi NE 11.5 mph 21.9 mph N/A   Overcast
2:55 AM 17.6 °F 3.2 °F 10.4 °F 73% 30.39 in 10.0 mi NNE 15.0 mph 23.0 mph N/A Snow Light Snow
3:15 AM 17.6 °F 3.7 °F 10.4 °F 73% 30.40 in 10.0 mi NNE 13.8 mph 19.6 mph N/A   Overcast
3:35 AM 15.8 °F 2.1 °F 8.6 °F 73% 30.40 in 10.0 mi NNE 12.7 mph 18.4 mph N/A   Overcast
3:55 AM 14.0 °F 0.5 °F 8.6 °F 79% 30.40 in 10.0 mi NNE 11.5 mph 17.3 mph N/A   Overcast
4:15 AM 14.0 °F -0.8 °F 8.6 °F 79% 30.39 in 10.0 mi NNE 13.8 mph - N/A   Overcast
4:35 AM 14.0 °F -0.2 °F 8.6 °F 79% 30.40 in 10.0 mi NNE 12.7 mph 16.1 mph N/A Snow Light Snow
4:55 AM 14.0 °F 2.0 °F 8.6 °F 79% 30.39 in 7.0 mi NNE 9.2 mph 17.3 mph N/A Snow Light Snow
5:15 AM 14.0 °F 0.5 °F 8.6 °F 79% 30.40 in 7.0 mi NE 11.5 mph 18.4 mph N/A Snow Light Snow
5:35 AM 14.0 °F -0.8 °F 8.6 °F 79% 30.40 in 4.0 mi NNE 13.8 mph 18.4 mph N/A Snow Light Snow
5:45 AM 12.2 °F -1.0 °F 8.6 °F 85% 30.40 in 5.0 mi NE 10.4 mph - N/A Snow Light Snow
6:45 AM 12.2 °F -1.0 °F 8.6 °F 85% 30.39 in 7.0 mi NE 10.4 mph - N/A   Overcast
7:45 AM 12.2 °F -1.8 °F 8.6 °F 85% 30.39 in 2.0 mi NE 11.5 mph 23.0 mph N/A Snow Light Snow
8:45 AM 12.2 °F -1.8 °F 8.6 °F 85% 30.39 in 4.0 mi NE 11.5 mph 23.0 mph N/A Snow Light Snow
9:45 AM 12.2 °F -1.8 °F 8.6 °F 85% 30.39 in 4.0 mi NE 11.5 mph 23.0 mph N/A Snow Light Snow
10:45 AM 17.6 °F 3.2 °F 8.6 °F 68% 30.40 in 7.0 mi ENE 15.0 mph 23.0 mph N/A   Overcast
11:45 AM 15.8 °F 0.9 °F 6.8 °F 68% 30.42 in 10.0 mi ENE 15.0 mph 23.0 mph N/A   Mostly Cloudy
12:45 PM 17.6 °F - 8.6 °F 68% 30.41 in 10.0 mi ENE 103.6 mph - N/A   Mostly Cloudy
1:45 PM 19.4 °F 7.2 °F 8.6 °F 63% 30.38 in 10.0 mi NE 11.5 mph 20.7 mph N/A   Mostly Cloudy
2:45 PM 19.4 °F 6.6 °F 6.8 °F 58% 30.35 in 10.0 mi ENE 12.7 mph - N/A   Scattered Clouds
3:45 PM 19.4 °F 6.6 °F 6.8 °F 58% 30.33 in 10.0 mi ENE 12.7 mph - N/A   Clear
4:45 PM 19.4 °F 6.6 °F 6.8 °F 58% 30.29 in 10.0 mi NE 12.7 mph - N/A   Clear
5:45 PM 17.6 °F 4.3 °F 6.8 °F 63% 30.27 in 10.0 mi NE 12.7 mph - N/A   Clear
6:45 PM 15.8 °F 2.1 °F 6.8 °F 68% 30.27 in 10.0 mi NE 12.7 mph - N/A   Clear
7:45 PM 15.8 °F 2.1 °F 6.8 °F 68% 30.25 in 10.0 mi NE 12.7 mph - N/A   Clear
8:45 PM 14.0 °F -0.2 °F 6.8 °F 73% 30.24 in 10.0 mi NE 12.7 mph - N/A   Clear